Miscellaneous Local Product
Issued by NWS Hastings, NE

Home | Current Version | Previous Version | Text Only | Print | Product List | Glossary Off
Versions: 1 2 3 4 5 6 7 8 9 10 11 12 13 14 15 16 17 18 19 20 21 22 23 24 25 26 27 28 29 30 31 32 33 34 35 36 37 38 39 40 41 42 43 44 45 46 47 48 49 50

000
AXUS43 KGID 190002
MISGRI

GID CWA HOURLY WEATHER ROUNDUP
NATIONAL WEATHER SERVICE HASTINGS NE
700 PM CDT SAT APR 18 2015

NOTE: "FAIR" INDICATES FEW OR NO CLOUDS BELOW 12,000 FEET WITH NO
SIGNIFICANT WEATHER AND/OR OBSTRUCTIONS TO VISIBILITY.

...SOUTH CENTRAL NEBRASKA...

CITY           SKY/WX    TMP DP  RH WIND       PRES   REMARKS
GRAND ISLAND   PTSUNNY   66  55  67 E9        29.78S
HASTINGS       CLOUDY    66  56  70 SE14      29.76R
KEARNEY        CLOUDY    55  48  76 E15       29.77R
ORD            PTSUNNY   66  47  50 E3        29.76S
YORK           PTSUNNY   66  59  77 SE14      29.79R
AURORA         PTSUNNY   67  60  79 E14       29.77S
LEXINGTON      CLOUDY    66  53  63 E5        29.75S
HOLDREGE       CLOUDY    64  49  56 E12       29.75S
HEBRON         CLOUDY    66  56  71 SE12      29.79R

...NEBRASKA PANHANDLE...

CITY           SKY/WX    TMP DP  RH WIND       PRES   REMARKS
CHADRON        PTSUNNY   52  45  77 NW7       29.91S
ALLIANCE       CLOUDY    55  46  71 N15       29.86R
SCOTTSBLUFF    CLOUDY    59  32  36 VRB3      29.87R
SIDNEY         LGT RAIN  46  39  76 N12       29.90R

...WESTERN AND NORTH CENTRAL NEBRASKA...

CITY           SKY/WX    TMP DP  RH WIND       PRES   REMARKS
VALENTINE      PTSUNNY   63  48  58 N16       29.80F
AINSWORTH      MOSUNNY   62  51  68 NE8       29.81S
ONEILL         CLOUDY    63  56  80 NE7       29.81S
BROKEN BOW     PTSUNNY   64  55  72 E12       29.76S
IMPERIAL       PTSUNNY   56  43  61 W12       29.79F
NORTH PLATTE   PTSUNNY   63  47  55 E8        29.76R
MCCOOK         CLOUDY    67  45  45 SE8       29.74R

...EASTERN NEBRASKA...

CITY           SKY/WX    TMP DP  RH WIND       PRES   REMARKS
NORFOLK        NOT AVBL
SO SIOUX CITY  CLOUDY    62  57  83 SE9       29.82S
TEKAMAH        CLOUDY    63  58  83 SE8       29.81S
COLUMBUS       CLOUDY    64  54  68 SE7       29.81S
ALBION         CLOUDY    65  56  72 SE10      29.78F
OMAHA EPPLEY   CLOUDY    62  57  83 SE5       29.82R
OFFUTT AFB     CLOUDY    61  57  86 E8        29.82S
MILLARD        CLOUDY    63  55  76 SE7       29.82S
LINCOLN        CLOUDY    64  55  72 SE13      29.81R
NEBRASKA CITY  CLOUDY    61  60  94 SE13      29.82F
BEATRICE       CLOUDY    65  56  72 SE10      29.80R
FALLS CITY     CLOUDY    62  58  86 SE9       29.83R

...NORTHERN KANSAS...

CITY           SKY/WX    TMP DP  RH WIND       PRES   REMARKS
GOODLAND       MOSUNNY   56  44  64 NW18      29.77R
HILL CITY      LGT RAIN  60  47  61 SE20G26   29.74R
NORTON         HVY RAIN  55  46  71 S13G22    29.80R
PHILLIPSBURG   RAIN      57  52  82 NE23      29.76F
SMITH CENTER   CLOUDY    55  46  71 E6        29.82R
BELOIT         CLOUDY    55  46  71 SE8       29.79S
HAYS           CLOUDY    57  45  62 E15       29.76S
RUSSELL        LGT RAIN  56  48  74 SE32G41   29.72F
CONCORDIA      LGT RAIN  58  52  80 SE6       29.84R
SALINA         RAIN      57  52  83 SW10G23   29.87R
TOPEKA         MOSUNNY   66  57  72 SE8       29.83R



USA.gov is the U.S. government's official web portal to all federal, state and local government web resources and services.